This is the latest recevied weather packets stored in our database for station/object HB9TJM-8. If no packets are shown the sender has not sent any weather packets the latest 10 day(s).
| Time | Temp. | Humidity | Pressure | Rain* | Wind** | Luminosity | Snow |
|---|---|---|---|---|---|---|---|
| 1777894257 | 11.67° C | 81% | 1015.8 hPa | 0.25 mm | - | 181 W/m² | - |
| 1777893949 | 11.67° C | 80% | 1016.2 hPa | 0.25 mm | - | 181 W/m² | - |
| 1777893641 | 11.67° C | 80% | 1015.7 hPa | 0.25 mm | - | 215 W/m² | - |
| 1777893334 | 11.67° C | 83% | 1015.6 hPa | 0.25 mm | - | 208 W/m² | - |
| 1777893026 | 11.67° C | 82% | 1016.1 hPa | 0.51 mm | - | 238 W/m² | - |
| 1777892718 | 11.67° C | 78% | 1015.7 hPa | 0.51 mm | - | 228 W/m² | - |
| 1777892410 | 11.67° C | 82% | 1015.8 hPa | 0.51 mm | - | 198 W/m² | - |
| 1777892102 | 11.67° C | 82% | 1015.5 hPa | 0.76 mm | - | 228 W/m² | - |
| 1777891795 | 11.67° C | 83% | 1015.4 hPa | 0.76 mm | - | 234 W/m² | - |
| 1777891487 | 11.67° C | 84% | 1015.7 hPa | 1.02 mm | - | 207 W/m² | - |
| 1777891180 | 11.67° C | 83% | 1016.2 hPa | 1.02 mm | - | 199 W/m² | - |
| 1777890872 | 11.67° C | 81% | 1015.2 hPa | 1.27 mm | - | 203 W/m² | - |
| 1777890564 | 11.11° C | 86% | 1015.5 hPa | 1.27 mm | - | 221 W/m² | - |
| 1777890257 | 11.11° C | 80% | 1015.3 hPa | 1.27 mm | - | 183 W/m² | - |
| 1777889949 | 11.11° C | 85% | 1015.6 hPa | 1.27 mm | - | 167 W/m² | - |
| 1777889641 | 11.11° C | 85% | 1015.4 hPa | 1.27 mm | - | 168 W/m² | - |
| 1777889334 | 11.11° C | 85% | 1015.3 hPa | 1.27 mm | - | 169 W/m² | - |
| 1777889027 | 11.11° C | 85% | 1015.4 hPa | 1.27 mm | - | 139 W/m² | - |
| 1777888719 | 11.11° C | 85% | 1015.5 hPa | 1.27 mm | - | 133 W/m² | - |
| 1777888411 | 11.11° C | 86% | 1015.8 hPa | 1.02 mm | - | 155 W/m² | - |
| 1777888104 | 11.67° C | 77% | 1015.6 hPa | 0.76 mm | - | 117 W/m² | - |
| 1777887796 | 12.22° C | 81% | 1015.7 hPa | 0.76 mm | - | 122 W/m² | - |
| 1777887489 | 12.22° C | 76% | 1015.6 hPa | 0.51 mm | - | 138 W/m² | - |
| 1777887182 | 12.22° C | 77% | 1015.5 hPa | 0.51 mm | - | 150 W/m² | - |
| 1777886875 | 12.22° C | 78% | 1015.7 hPa | 0.51 mm | - | 131 W/m² | - |
* Rain latest hour (hover to see other rain measurements)
** Current wind speed in m/s (hover to see current wind gust speed)